Time,TemperatureF,DewpointF,PressureIn,WindDirection,WindDirectionDegrees,WindSpeedMPH,WindSpeedGustMPH,Humidity,HourlyPrecipIn,Conditions,Clouds,dailyrainin,SoftwareType,DateUTC
2013-02-11 00:01:00,16.0,12.0,30.46,WNW,302,0.0,-999.0,83,-99.99,,,-99.99,,2013-02-11 07:01:00,
2013-02-11 00:11:00,16.0,12.0,30.46,WNW,302,0.0,-999.0,84,-99.99,,,-99.99,,2013-02-11 07:11:00,
2013-02-11 00:21:00,16.0,12.0,30.46,WNW,302,0.0,-999.0,84,-99.99,,,-99.99,,2013-02-11 07:21:00,
2013-02-11 00:31:00,16.0,12.0,30.46,WNW,302,0.0,-999.0,84,-99.99,,,-99.99,,2013-02-11 07:31:00,
2013-02-11 00:41:00,15.0,11.0,30.46,WNW,302,0.0,-999.0,84,-99.99,,,-99.99,,2013-02-11 07:41:00,
2013-02-11 00:51:00,15.0,11.0,30.46,WNW,302,0.0,-999.0,84,-99.99,,,-99.99,,2013-02-11 07:51:00,
2013-02-11 01:01:00,14.0,11.0,30.47,WNW,302,0.0,-999.0,86,-99.99,,,-99.99,,2013-02-11 08:01:00,
2013-02-11 01:11:00,14.0,11.0,30.46,WNW,302,0.0,-999.0,87,-99.99,,,-99.99,,2013-02-11 08:11:00,
2013-02-11 01:21:00,14.0,11.0,30.46,WNW,302,0.0,-999.0,87,-99.99,,,-99.99,,2013-02-11 08:21:00,
2013-02-11 01:31:00,14.0,11.0,30.46,WNW,302,0.0,-999.0,88,-99.99,,,-99.99,,2013-02-11 08:31:00,
2013-02-11 01:42:00,14.0,11.0,30.46,WNW,302,0.0,-999.0,88,-99.99,,,-99.99,,2013-02-11 08:42:00,
2013-02-11 01:52:00,14.0,11.0,30.46,WNW,302,0.0,-999.0,88,-99.99,,,-99.99,,2013-02-11 08:52:00,
2013-02-11 02:01:00,12.0,9.0,30.45,WNW,302,0.0,-999.0,87,-99.99,,,-99.99,,2013-02-11 09:01:00,
2013-02-11 02:12:00,12.0,9.0,30.45,WNW,302,0.0,-999.0,87,-99.99,,,-99.99,,2013-02-11 09:12:00,
2013-02-11 02:21:00,12.0,9.0,30.46,WNW,301,0.0,-999.0,88,-99.99,,,-99.99,,2013-02-11 09:21:00,
2013-02-11 02:31:00,10.0,7.0,30.45,SSW,192,0.0,-999.0,87,-99.99,,,-99.99,,2013-02-11 09:31:00,
2013-02-11 02:41:00,10.0,7.0,30.45,SSW,192,0.0,-999.0,87,-99.99,,,-99.99,,2013-02-11 09:41:00,
2013-02-11 02:51:00,8.0,5.0,30.46,South,186,0.0,-999.0,87,-99.99,,,-99.99,,2013-02-11 09:51:00,
2013-02-11 03:01:00,8.0,5.0,30.46,South,186,0.0,-999.0,88,-99.99,,,-99.99,,2013-02-11 10:01:00,
2013-02-11 03:11:00,8.0,5.0,30.46,South,186,0.0,-999.0,88,-99.99,,,-99.99,,2013-02-11 10:11:00,
2013-02-11 03:21:00,8.0,5.0,30.46,South,186,0.0,-999.0,89,-99.99,,,-99.99,,2013-02-11 10:21:00,
2013-02-11 03:31:00,8.0,5.0,30.46,South,186,0.0,-999.0,88,-99.99,,,-99.99,,2013-02-11 10:31:00,
2013-02-11 03:41:00,8.0,5.0,30.46,South,186,0.0,-999.0,88,-99.99,,,-99.99,,2013-02-11 10:41:00,
2013-02-11 03:51:00,8.0,5.0,30.46,South,186,0.0,-999.0,88,-99.99,,,-99.99,,2013-02-11 10:51:00,
2013-02-11 04:01:00,8.0,5.0,30.45,South,186,0.0,-999.0,88,-99.99,,,-99.99,,2013-02-11 11:01:00,
2013-02-11 04:11:00,8.0,5.0,30.45,South,186,0.0,-999.0,88,-99.99,,,-99.99,,2013-02-11 11:11:00,
2013-02-11 04:21:00,7.0,4.0,30.45,ENE,66,0.0,-999.0,88,-99.99,,,-99.99,,2013-02-11 11:21:00,
2013-02-11 04:32:00,6.0,3.0,30.45,ENE,66,0.0,-999.0,88,-99.99,,,-99.99,,2013-02-11 11:32:00,
2013-02-11 04:42:00,6.0,3.0,30.45,ENE,66,0.0,-999.0,88,-99.99,,,-99.99,,2013-02-11 11:42:00,
2013-02-11 04:52:00,6.0,3.0,30.45,ENE,66,0.0,-999.0,88,-99.99,,,-99.99,,2013-02-11 11:52:00,
2013-02-11 05:02:00,5.0,2.0,30.45,NE,55,0.0,-999.0,87,-99.99,,,-99.99,,2013-02-11 12:02:00,
2013-02-11 05:12:00,5.0,2.0,30.45,NE,55,0.0,-999.0,87,-99.99,,,-99.99,,2013-02-11 12:12:00,
2013-02-11 05:22:00,5.0,2.0,30.45,NNE,15,0.0,-999.0,86,-99.99,,,-99.99,,2013-02-11 12:22:00,
2013-02-11 05:31:00,4.0,1.0,30.46,NNE,15,1.0,-999.0,86,-99.99,,,-99.99,,2013-02-11 12:31:00,
2013-02-11 05:42:00,3.0,0.0,30.46,NNE,12,0.0,-999.0,85,-99.99,,,-99.99,,2013-02-11 12:42:00,
2013-02-11 05:52:00,3.0,0.0,30.46,NNE,12,0.0,-999.0,85,-99.99,,,-99.99,,2013-02-11 12:52:00,
2013-02-11 06:01:00,3.0,0.0,30.46,NNE,12,0.0,-999.0,86,-99.99,,,-99.99,,2013-02-11 13:01:00,
2013-02-11 06:11:00,3.0,0.0,30.46,NNE,12,0.0,-999.0,86,-99.99,,,-99.99,,2013-02-11 13:11:00,
2013-02-11 06:21:00,3.0,0.0,30.46,NNE,12,0.0,-999.0,86,-99.99,,,-99.99,,2013-02-11 13:21:00,
2013-02-11 06:32:00,3.0,0.0,30.46,NNE,12,0.0,-999.0,86,-99.99,,,-99.99,,2013-02-11 13:32:00,
2013-02-11 06:41:00,3.0,0.0,30.46,NNE,12,0.0,-999.0,86,-99.99,,,-99.99,,2013-02-11 13:41:00,
2013-02-11 06:51:00,4.0,1.0,30.47,NNE,12,0.0,-999.0,86,-99.99,,,-99.99,,2013-02-11 13:51:00,
2013-02-11 07:01:00,4.0,1.0,30.47,NNE,12,0.0,-999.0,86,-99.99,,,-99.99,,2013-02-11 14:01:00,
2013-02-11 07:11:00,4.0,1.0,30.47,NNE,12,0.0,-999.0,86,-99.99,,,-99.99,,2013-02-11 14:11:00,
2013-02-11 07:21:00,3.0,0.0,30.47,NNE,12,0.0,-999.0,85,-99.99,,,-99.99,,2013-02-11 14:21:00,
2013-02-11 07:32:00,3.0,0.0,30.48,North,11,0.0,-999.0,85,-99.99,,,-99.99,,2013-02-11 14:32:00,
2013-02-11 07:41:00,3.0,0.0,30.48,North,11,0.0,-999.0,85,-99.99,,,-99.99,,2013-02-11 14:41:00,
2013-02-11 07:52:00,2.0,-1.0,30.48,North,5,0.0,-999.0,85,-99.99,,,-99.99,,2013-02-11 14:52:00,
2013-02-11 08:01:00,2.0,-1.0,30.49,North,5,0.0,-999.0,85,-99.99,,,-99.99,,2013-02-11 15:01:00,
2013-02-11 08:11:00,2.0,-1.0,30.49,North,5,0.0,-999.0,85,-99.99,,,-99.99,,2013-02-11 15:11:00,
2013-02-11 08:22:00,3.0,0.0,30.49,North,5,0.0,-999.0,86,-99.99,,,-99.99,,2013-02-11 15:22:00,
2013-02-11 08:31:00,3.0,0.0,30.50,North,5,0.0,-999.0,85,-99.99,,,-99.99,,2013-02-11 15:31:00,
2013-02-11 08:42:00,3.0,0.0,30.50,North,5,0.0,-999.0,85,-99.99,,,-99.99,,2013-02-11 15:42:00,
2013-02-11 08:51:00,3.0,0.0,30.50,North,5,0.0,-999.0,85,-99.99,,,-99.99,,2013-02-11 15:51:00,
2013-02-11 09:01:00,5.0,2.0,30.50,North,5,0.0,-999.0,86,-99.99,,,-99.99,,2013-02-11 16:01:00,
2013-02-11 09:11:00,5.0,2.0,30.50,North,5,0.0,-999.0,86,-99.99,,,-99.99,,2013-02-11 16:11:00,
2013-02-11 09:21:00,6.0,2.0,30.51,North,5,0.0,-999.0,85,-99.99,,,-99.99,,2013-02-11 16:21:00,
2013-02-11 09:31:00,6.0,2.0,30.51,North,5,0.0,-999.0,85,-99.99,,,-99.99,,2013-02-11 16:31:00,
2013-02-11 09:41:00,8.0,4.0,30.50,North,5,0.0,-999.0,83,-99.99,,,-99.99,,2013-02-11 16:41:00,
2013-02-11 09:52:00,8.0,4.0,30.50,North,5,0.0,-999.0,83,-99.99,,,-99.99,,2013-02-11 16:52:00,
2013-02-11 10:01:00,7.0,2.0,30.50,NNE,24,3.0,-999.0,80,-99.99,,,-99.99,,2013-02-11 17:01:00,
2013-02-11 10:11:00,7.0,2.0,30.50,NNE,24,3.0,-999.0,80,-99.99,,,-99.99,,2013-02-11 17:11:00,
2013-02-11 10:21:00,8.0,4.0,30.50,NNE,25,2.0,-999.0,82,-99.99,,,-99.99,,2013-02-11 17:21:00,
2013-02-11 10:32:00,10.0,6.0,30.50,NNE,27,3.0,-999.0,82,-99.99,,,-99.99,,2013-02-11 17:32:00,
2013-02-11 10:41:00,10.0,6.0,30.50,NNE,27,3.0,-999.0,82,-99.99,,,-99.99,,2013-02-11 17:41:00,
2013-02-11 10:52:00,12.0,5.0,30.50,NNE,26,3.0,-999.0,74,-99.99,,,-99.99,,2013-02-11 17:52:00,
2013-02-11 11:01:00,14.0,6.0,30.51,North,5,1.0,-999.0,70,-99.99,,,-99.99,,2013-02-11 18:01:00,
2013-02-11 11:11:00,14.0,6.0,30.51,North,5,1.0,-999.0,70,-99.99,,,-99.99,,2013-02-11 18:11:00,
2013-02-11 11:21:00,17.0,7.0,30.51,North,355,0.0,-999.0,65,-99.99,,,-99.99,,2013-02-11 18:21:00,
2013-02-11 11:32:00,17.0,7.0,30.51,North,355,0.0,-999.0,64,-99.99,,,-99.99,,2013-02-11 18:32:00,
2013-02-11 11:41:00,17.0,7.0,30.51,North,355,0.0,-999.0,64,-99.99,,,-99.99,,2013-02-11 18:41:00,
2013-02-11 11:52:00,17.0,6.0,30.51,North,355,1.0,-999.0,61,-99.99,,,-99.99,,2013-02-11 18:52:00,
2013-02-11 12:01:00,18.0,8.0,30.50,NNW,346,0.0,-999.0,63,-99.99,,,-99.99,,2013-02-11 19:01:00,
2013-02-11 12:11:00,17.0,6.0,30.49,North,355,0.0,-999.0,61,-99.99,,,-99.99,,2013-02-11 19:11:00,
2013-02-11 12:21:00,17.0,6.0,30.49,North,355,0.0,-999.0,61,-99.99,,,-99.99,,2013-02-11 19:21:00,
2013-02-11 12:31:00,19.0,7.0,30.49,North,355,0.0,-999.0,58,-99.99,,,-99.99,,2013-02-11 19:31:00,
2013-02-11 12:41:00,19.0,7.0,30.49,North,355,0.0,-999.0,58,-99.99,,,-99.99,,2013-02-11 19:41:00,
2013-02-11 12:51:00,18.0,7.0,30.48,North,355,0.0,-999.0,62,-99.99,,,-99.99,,2013-02-11 19:51:00,
2013-02-11 13:01:00,20.0,9.0,30.47,North,355,0.0,-999.0,63,-99.99,,,-99.99,,2013-02-11 20:01:00,
2013-02-11 13:11:00,20.0,8.0,30.47,North,355,0.0,-999.0,60,-99.99,,,-99.99,,2013-02-11 20:11:00,
2013-02-11 13:21:00,20.0,8.0,30.47,North,355,0.0,-999.0,60,-99.99,,,-99.99,,2013-02-11 20:21:00,
2013-02-11 13:31:00,19.0,9.0,30.47,North,355,0.0,-999.0,64,-99.99,,,-99.99,,2013-02-11 20:31:00,
2013-02-11 13:41:00,21.0,10.0,30.47,North,355,0.0,-999.0,62,-99.99,,,-99.99,,2013-02-11 20:41:00,
2013-02-11 13:52:00,21.0,10.0,30.47,North,355,0.0,-999.0,62,-99.99,,,-99.99,,2013-02-11 20:52:00,
2013-02-11 14:02:00,21.0,10.0,30.47,North,355,0.0,-999.0,62,-99.99,,,-99.99,,2013-02-11 21:02:00,
2013-02-11 14:11:00,20.0,9.0,30.46,North,355,0.0,-999.0,63,-99.99,,,-99.99,,2013-02-11 21:11:00,
2013-02-11 14:21:00,20.0,9.0,30.46,North,355,0.0,-999.0,63,-99.99,,,-99.99,,2013-02-11 21:21:00,
2013-02-11 14:31:00,18.0,10.0,30.46,WNW,290,0.0,-999.0,69,-99.99,,,-99.99,,2013-02-11 21:31:00,
2013-02-11 14:41:00,18.0,10.0,30.46,WNW,290,0.0,-999.0,69,-99.99,,,-99.99,,2013-02-11 21:41:00,
2013-02-11 14:51:00,18.0,9.0,30.46,WNW,286,0.0,-999.0,68,-99.99,,,-99.99,,2013-02-11 21:51:00,
2013-02-11 15:01:00,19.0,10.0,30.46,WNW,286,1.0,-999.0,68,-99.99,,,-99.99,,2013-02-11 22:01:00,
2013-02-11 15:11:00,18.0,10.0,30.47,WSW,248,0.0,-999.0,69,-99.99,,,-99.99,,2013-02-11 22:11:00,
2013-02-11 15:21:00,18.0,10.0,30.47,WSW,248,0.0,-999.0,69,-99.99,,,-99.99,,2013-02-11 22:21:00,
2013-02-11 15:31:00,18.0,10.0,30.47,WSW,240,0.0,-999.0,69,-99.99,,,-99.99,,2013-02-11 22:31:00,
2013-02-11 15:41:00,18.0,10.0,30.47,WSW,240,0.0,-999.0,69,-99.99,,,-99.99,,2013-02-11 22:41:00,
2013-02-11 15:52:00,18.0,10.0,30.47,SW,219,0.0,-999.0,69,-99.99,,,-99.99,,2013-02-11 22:52:00,
2013-02-11 16:01:00,16.0,8.0,30.47,SSW,196,0.0,-999.0,71,-99.99,,,-99.99,,2013-02-11 23:01:00,
2013-02-11 16:11:00,16.0,8.0,30.47,SSW,196,0.0,-999.0,71,-99.99,,,-99.99,,2013-02-11 23:11:00,
2013-02-11 16:21:00,16.0,8.0,30.47,SSW,194,0.0,-999.0,70,-99.99,,,-99.99,,2013-02-11 23:21:00,
2013-02-11 16:31:00,16.0,8.0,30.47,SSW,194,0.0,-999.0,71,-99.99,,,-99.99,,2013-02-11 23:31:00,
2013-02-11 16:41:00,16.0,8.0,30.47,SSW,194,0.0,-999.0,71,-99.99,,,-99.99,,2013-02-11 23:41:00,
2013-02-11 16:52:00,16.0,8.0,30.47,SSW,194,0.0,-999.0,71,-99.99,,,-99.99,,2013-02-11 23:52:00,
2013-02-11 17:01:00,16.0,8.0,30.47,SSW,194,0.0,-999.0,70,-99.99,,,-99.99,,2013-02-12 00:01:00,
2013-02-11 17:11:00,16.0,8.0,30.47,SSW,194,0.0,-999.0,70,-99.99,,,-99.99,,2013-02-12 00:11:00,
2013-02-11 17:21:00,15.0,7.0,30.47,SSW,194,0.0,-999.0,71,-99.99,,,-99.99,,2013-02-12 00:21:00,
2013-02-11 17:31:00,13.0,6.0,30.47,SSW,194,0.0,-999.0,74,-99.99,,,-99.99,,2013-02-12 00:31:00,
2013-02-11 17:41:00,13.0,6.0,30.47,SSW,194,0.0,-999.0,74,-99.99,,,-99.99,,2013-02-12 00:41:00,
2013-02-11 17:52:00,12.0,6.0,30.47,South,183,0.0,-999.0,76,-99.99,,,-99.99,,2013-02-12 00:52:00,
2013-02-11 18:01:00,11.0,5.0,30.48,South,178,0.0,-999.0,77,-99.99,,,-99.99,,2013-02-12 01:01:00,
2013-02-11 18:11:00,11.0,5.0,30.48,South,178,0.0,-999.0,77,-99.99,,,-99.99,,2013-02-12 01:11:00,
2013-02-11 18:21:00,11.0,6.0,30.48,South,178,0.0,-999.0,78,-99.99,,,-99.99,,2013-02-12 01:21:00,
2013-02-11 18:31:00,11.0,6.0,30.49,South,178,0.0,-999.0,81,-99.99,,,-99.99,,2013-02-12 01:31:00,
2013-02-11 18:41:00,11.0,6.0,30.49,South,178,0.0,-999.0,81,-99.99,,,-99.99,,2013-02-12 01:41:00,
2013-02-11 18:52:00,10.0,6.0,30.49,South,178,0.0,-999.0,82,-99.99,,,-99.99,,2013-02-12 01:52:00,
2013-02-11 19:01:00,10.0,6.0,30.50,South,178,0.0,-999.0,83,-99.99,,,-99.99,,2013-02-12 02:01:00,
2013-02-11 19:11:00,10.0,6.0,30.50,South,178,0.0,-999.0,82,-99.99,,,-99.99,,2013-02-12 02:11:00,
2013-02-11 19:21:00,10.0,6.0,30.50,South,178,0.0,-999.0,82,-99.99,,,-99.99,,2013-02-12 02:21:00,
2013-02-11 19:31:00,10.0,6.0,30.49,South,178,0.0,-999.0,82,-99.99,,,-99.99,,2013-02-12 02:31:00,
2013-02-11 19:41:00,10.0,6.0,30.49,South,178,0.0,-999.0,82,-99.99,,,-99.99,,2013-02-12 02:41:00,
2013-02-11 19:52:00,9.0,5.0,30.49,South,178,0.0,-999.0,82,-99.99,,,-99.99,,2013-02-12 02:52:00,
2013-02-11 20:01:00,9.0,5.0,30.50,South,178,0.0,-999.0,82,-99.99,,,-99.99,,2013-02-12 03:01:00,
2013-02-11 20:11:00,9.0,5.0,30.50,South,178,0.0,-999.0,82,-99.99,,,-99.99,,2013-02-12 03:11:00,
2013-02-11 20:21:00,9.0,5.0,30.50,South,178,0.0,-999.0,83,-99.99,,,-99.99,,2013-02-12 03:21:00,
2013-02-11 20:31:00,9.0,5.0,30.50,South,178,0.0,-999.0,84,-99.99,,,-99.99,,2013-02-12 03:31:00,
2013-02-11 20:41:00,9.0,5.0,30.50,South,178,0.0,-999.0,85,-99.99,,,-99.99,,2013-02-12 03:41:00,
2013-02-11 20:52:00,9.0,5.0,30.50,South,178,0.0,-999.0,85,-99.99,,,-99.99,,2013-02-12 03:52:00,
2013-02-11 21:01:00,9.0,5.0,30.50,South,178,0.0,-999.0,85,-99.99,,,-99.99,,2013-02-12 04:01:00,
2013-02-11 21:21:00,8.0,5.0,30.51,South,178,0.0,-999.0,86,-99.99,,,-99.99,,2013-02-12 04:21:00,
2013-02-11 21:31:00,7.0,3.0,30.51,South,178,0.0,-999.0,85,-99.99,,,-99.99,,2013-02-12 04:31:00,
2013-02-11 21:41:00,7.0,3.0,30.51,South,178,0.0,-999.0,85,-99.99,,,-99.99,,2013-02-12 04:41:00,
2013-02-11 21:52:00,7.0,4.0,30.51,South,178,0.0,-999.0,87,-99.99,,,-99.99,,2013-02-12 04:52:00,
2013-02-11 22:01:00,8.0,5.0,30.52,South,178,0.0,-999.0,87,-99.99,,,-99.99,,2013-02-12 05:01:00,
2013-02-11 22:11:00,8.0,5.0,30.52,South,178,0.0,-999.0,87,-99.99,,,-99.99,,2013-02-12 05:11:00,
2013-02-11 22:21:00,8.0,5.0,30.52,South,178,0.0,-999.0,88,-99.99,,,-99.99,,2013-02-12 05:21:00,
2013-02-11 22:31:00,7.0,4.0,30.53,South,178,0.0,-999.0,87,-99.99,,,-99.99,,2013-02-12 05:31:00,
2013-02-11 22:41:00,7.0,4.0,30.53,South,178,0.0,-999.0,87,-99.99,,,-99.99,,2013-02-12 05:41:00,
2013-02-11 22:52:00,7.0,4.0,30.53,South,178,0.0,-999.0,87,-99.99,,,-99.99,,2013-02-12 05:52:00,
2013-02-11 23:01:00,5.0,1.0,30.54,NNE,26,0.0,-999.0,84,-99.99,,,-99.99,,2013-02-12 06:01:00,
2013-02-11 23:11:00,4.0,1.0,30.54,NNE,26,0.0,-999.0,86,-99.99,,,-99.99,,2013-02-12 06:11:00,
2013-02-11 23:21:00,4.0,1.0,30.54,NNE,26,0.0,-999.0,86,-99.99,,,-99.99,,2013-02-12 06:21:00,
2013-02-11 23:31:00,4.0,1.0,30.55,NNE,26,0.0,-999.0,87,-99.99,,,-99.99,,2013-02-12 06:31:00,
2013-02-11 23:42:00,4.0,1.0,30.55,NNE,26,0.0,-999.0,87,-99.99,,,-99.99,,2013-02-12 06:42:00,
2013-02-11 23:52:00,4.0,1.0,30.55,NNE,26,0.0,-999.0,87,-99.99,,,-99.99,,2013-02-12 06:52:00,